Location: Dublovice
(49.6701°N, 14.3600°E)
Time: 03:34:17
(UTC+00:00)

Daily predictions for brighter satellites

Satellite Brightness Start Highest point End
(mag) Time Altitude Azimuth Time Altitude Azimuth Time Altitude Azimuth
ATLAS 3B R/B 3.9 01:40:33 44° NE 01:40:33 44° NE 01:47:00 10° ESE
USA 267 4.4 01:47:20 10° ENE 01:51:29 37° NE 01:51:29 37° NE
ATLAS 2AS CENTAUR R/B 3.7 01:59:54 44° E 01:59:54 44° E 02:05:27 10° NE
Cosmos 2263 Rocket 3.6 02:18:15 34° E 02:18:15 34° E 02:22:01 10° ESE
S3M 4.5 02:43:58 10° N 02:50:11 58° ENE 02:56:15 10° SSE
Cosmos 2219 3.6 02:53:44 56° SE 02:53:44 56° SE 02:58:12 10° SE
H-2A R/B 2.3 02:57:50 10° NNE 03:02:39 61° E 03:02:39 61° E
PAYLOAD A 4.1 03:02:45 10° NNE 03:07:52 78° NE 03:07:52 78° NE
Meteor 1-24 Rocket 4.4 03:04:16 10° S 03:09:32 50° E 03:14:42 10° NNE
BREEZE-M DEB (TANK) 3.5 03:15:12 68° E 03:15:12 68° E 03:22:14 10° E
Cosmos 1844 Rocket 4.4 03:11:59 13° N 03:16:13 29° NE 03:21:05 10° ESE
Cosmos 1331 Rocket 4.3 03:17:17 56° N 03:17:17 56° N 03:21:34 10° NNE
CZ-4 R/B 4.4 03:16:34 10° NNE 03:20:17 49° N 03:20:17 49° N
NOSS 3-1 (A) 4.2 03:23:44 49° WSW 03:24:11 50° WSW 03:32:37 10° SSE
Cosmos 1980 Rocket 2.2 03:23:21 48° SSW 03:24:57 78° ESE 03:30:35 10° NNE
USA 281 3.1 03:20:27 10° SSE 03:27:02 88° ENE 03:32:52 14° NNW
IRS-1D 3.3 03:23:39 10° NNE 03:28:40 90° NW 03:29:32 62° SSW
Cosmos 2369 4.1 03:25:05 20° S 03:28:59 61° ESE 03:34:34 10° NE
SL-08 ROCKET BODY 4.2 03:24:52 17° S 03:29:38 84° W 03:35:33 10° N
ATLAS 3B R/B 2.9 03:27:51 41° NW 03:30:51 70° SW 03:38:29 10° SSE
USA 267 3.7 03:29:42 10° E 03:36:00 53° NNE 03:38:49 32° NW
Meteor 2-5 Rocket 3.7 03:31:48 10° S 03:37:34 82° E 03:43:15 10° NNE
Cosmos 371 Rocket 3.3 03:37:59 40° NNW 03:39:44 81° ENE 03:44:34 10° SSE
Cosmos 1697 Rocket 3.0 03:42:44 44° NW 03:42:44 44° NW 03:48:02 10° NNE
ATLAS CENTAUR R/B 1.9 03:43:56 41° NNE 03:43:56 41° NNE 03:46:41 10° NE
Okean 2 Rocket 4.3 03:38:41 10° N 03:42:58 41° ENE 03:47:11 10° SE
NOSS 2-1 (D) 3.7 03:43:28 50° N 03:44:05 57° NE 03:48:46 10° SE
Cosmos 482 Debris 4.4 03:44:56 71° SW 03:45:21 81° SSE 03:49:16 10° ENE
Lacrosse 4 Rocket 2.4 03:49:00 32° S 03:49:00 32° S 03:51:29 10° SSE
COSMO-SKYMED 1 3.3 03:43:30 10° SSE 03:47:44 54° ENE 03:51:59 10° N
Cosmos 1939 Rocket 2.6 03:44:52 10° NNE 03:48:36 83° ESE 03:49:12 61° S
ATLAS 2AS CENTAUR R/B 2.9 03:47:22 40° W 03:49:41 56° NW 03:56:32 10° NE
Cosmos 1452 Rocket 4.0 03:52:05 40° NW 03:52:05 40° NW 03:56:43 10° NNE
Cosmos 2315 Rocket 3.9 03:45:36 10° NNW 03:52:00 75° W 03:58:19 10° S
Cosmos 1818 3.5 03:51:21 37° SW 03:53:37 82° NW 03:59:08 10° NE
USA 59 Rocket 0.1 03:53:36 46° NNW 03:54:37 67° NE 03:59:30 10° SE
Cosmos 2242 Rocket 3.4 03:54:08 33° SSW 03:56:03 67° W 04:00:30 10° N
Cosmos 1302 Rocket 3.8 03:53:25 29° SW 03:56:06 73° WNW 04:01:19 10° NNE
Cosmos 883 Rocket 4.4 03:51:25 10° NNW 03:57:43 65° W 04:03:54 10° S
CZ-2C R/B 3.5 03:53:57 10° N 03:56:42 27° NNW 03:56:42 27° NNW
RUBIN 8/PSLV 4.4 03:55:21 10° NNE 03:59:36 85° WNW 04:03:53 10° SSW
Cosmos 2263 Rocket 2.5 04:00:01 40° W 04:00:40 41° WSW 04:05:53 10° S
Cosmos 2082 3.9 04:03:04 34° WNW 04:04:59 47° WSW 04:10:22 10° S
CBERS-1 4.2 04:01:25 10° NNE 04:06:35 75° ESE 04:11:41 10° S
Cosmos 2266 Rocket 4.2 04:05:08 10° SSW 04:11:18 48° WNW 04:17:29 10° N
BREEZE-M DEB (TANK) 2.1 04:14:05 49° W 04:14:51 85° S 04:21:03 10° E
Cosmos 2151 Rocket 3.5 04:11:46 10° NNW 04:16:14 84° W 04:20:41 10° S
Cosmos 1437 Rocket 2.5 04:16:18 10° S 04:19:52 81° E 04:23:30 10° NNE
NOSS 2-1 (E) 3.4 04:20:27 31° NW 04:22:16 78° SW 04:27:20 10° SE
SL-08 RB Rocket 3.6 04:18:50 10° N 04:23:26 75° WNW 04:28:01 10° SSW
SL-16 R/B 2.9 04:18:48 10° S 04:24:19 57° ESE 04:29:53 10° NE
Okean 1 Rocket 3.3 04:20:19 10° N 04:24:49 74° E 04:29:16 10° SSE
Gbstr 26 Del rocket 3.9 04:22:25 15° SW 04:26:08 56° SSE 04:31:39 10° ENE
Cosmos 1484 Rocket 2.7 04:23:52 10° N 04:27:15 45° WNW 04:30:36 10° SW
USA 229 DEB 4.1 04:21:54 18° NW 04:27:37 58° WSW 04:35:31 10° SSE
USA 229 4.1 04:22:01 18° NW 04:27:45 58° WSW 04:35:37 10° SSE
Cosmos 2084 Rocket 4.2 04:23:49 10° SSW 04:28:00 52° SE 04:32:06 10° NE
Cosmos 1606 4.0 04:25:07 10° N 04:28:19 36° ENE 04:31:27 10° SE
Cosmos 304 Rocket 4.1 04:26:56 21° NW 04:29:44 42° WSW 04:34:11 10° S
Cosmos 1655 Rocket 4.1 04:24:35 10° SSW 04:30:47 52° WNW 04:36:59 10° N
SKYMED 2 3.7 04:31:36 10° S 04:35:50 51° W 04:40:06 10° NNW
Cosmos 2344 4.1 04:28:29 10° SSW 04:35:57 58° SE 04:43:06 10° NE
Cosmos 2219 4.4 04:35:43 20° W 04:36:01 20° W 04:40:03 10° SW
BREEZE-M DEB (TANK) 3.5 04:39:15 11° SW 04:41:14 28° SSE 04:44:27 10° E
H-2A R/B 3.1 04:37:56 10° N 04:41:45 22° WNW 04:43:10 20° W
USA 215 4.1 04:36:40 10° ENE 04:43:00 50° SE 04:49:19 10° SSW
BREEZE-M DEB (TANK) 4.1 04:45:31 17° WSW 04:47:26 32° S 04:55:00 10° SE
Cosmos 1328 3.9 04:43:54 10° SSW 04:47:27 43° WNW 04:51:01 10° N
Cosmos 2333 Rocket 3.4 04:44:41 10° S 04:50:06 46° ESE 04:55:31 10° NE
Meteor 1-24 Rocket 4.5 04:48:18 10° WSW 04:52:53 27° WNW 04:57:24 10° N
ARIANE 5 R/B 2.6 04:47:49 10° NNE 04:52:54 81° ESE 04:58:01 10° SSW
ARGOS 3.6 04:48:06 10° N 04:53:06 39° WNW 04:58:05 10° SW
SL-8 R/B 3.9 04:49:43 13° WSW 04:53:56 68° SSE 04:58:40 10° E
Thor Agena Rocket 4.3 04:50:01 10° N 04:54:34 31° WNW 04:59:04 10° WSW
Cosmos 2278 3.6 04:49:31 10° SSW 04:55:10 78° WNW 05:00:52 10° NNE
Cosmos 2221 Rocket 3.6 04:51:33 10° SSW 04:55:53 57° WNW 05:00:16 10° N
Cosmos 1844 Rocket 2.7 04:54:56 10° NW 05:00:31 63° WSW 05:06:03 10° SSE
NOSS 2-1 (C) 4.2 04:58:22 16° WNW 05:01:08 37° SW 05:05:50 10° SSE
Cosmos 2278 Rocket 4.2 04:59:13 10° N 05:03:33 22° NE 05:07:52 10° E
Cosmos 2322 Rocket 2.6 04:58:18 10° SSW 05:03:55 71° ESE 05:09:34 10° NNE
TSX-5 4.2 05:00:02 10° NW 05:04:17 79° WSW 05:09:36 10° SSE
Sich 1 Rocket 4.2 05:01:11 10° NNW 05:05:12 34° W 05:09:15 10° SSW
H-2A R/B 1.8 05:03:44 10° N 05:06:09 45° WNW 05:08:31 10° SSW
Cosmos 1943 Rocket 4.3 05:03:43 10° N 05:07:33 18° NE 05:11:23 10° E
Cosmos 1975 Rocket 4.1 05:03:36 10° S 05:07:55 52° E 05:12:16 10° NNE
Cosmos 1386 Rocket 4.4 05:03:00 10° S 05:09:08 84° W 05:15:12 10° N
Cosmos 1980 Rocket 3.3 05:05:09 10° W 05:09:35 25° NW 05:14:10 10° NNE
SMAP 4.2 05:05:09 10° NNE 05:09:41 48° E 05:14:11 10° S
Meteor 1-21 Rocket 4.1 05:04:48 10° SSW 05:10:24 74° WNW 05:15:58 10° N
IRS-1C 4.1 05:05:35 10° NNE 05:10:55 73° WNW 05:16:13 10° SSW
USA 281 4.3 05:07:32 10° SW 05:12:18 21° W 05:17:07 10° NW
Cosmos 1777 Rocket 4.1 05:09:22 10° NNW 05:14:35 63° WSW 05:19:46 10° S
IRS-P3 4.1 05:10:54 10° NNE 05:16:16 84° WNW 05:21:35 10° SSW
Cosmos 1745 Rocket 4.1 05:10:45 10° S 05:17:07 87° W 05:23:30 10° N
Cosmos 1674 Rocket 4.3 05:14:29 10° SW 05:18:16 29° WNW 05:22:06 10° N
Cosmos 1025 Rocket 3.1 05:14:29 10° SSW 05:18:38 55° WNW 05:22:50 10° N
USA 267 3.3 05:12:15 10° ESE 05:18:48 86° SSW 05:25:23 10° WNW
ATLAS 3B R/B 4.3 05:15:27 10° WNW 05:20:20 18° WSW 05:25:08 10° SW
Okean 2 Rocket 4.2 05:17:10 10° NW 05:20:43 23° W 05:24:14 10° SW
ATLAS CENTAUR R/B 3.0 05:18:24 10° WNW 05:20:44 15° NNW 05:23:09 10° NNE
ARIANE 6 FM1 Upper Stage 2.8 05:19:25 10° WSW 05:23:36 61° NW 05:27:52 10° NE
Cosmos 1503 Rocket 4.3 05:18:59 10° NNW 05:24:06 49° WSW 05:29:07 10° S
COSMO-SKYMED 1 4.0 05:21:10 10° SW 05:24:13 18° W 05:27:17 10° NW
Cosmos 482 Debris 4.3 05:20:46 10° W 05:25:06 59° N 05:28:26 10° ENE
SeaSat 1 4.3 05:21:13 10° E 05:25:11 25° NE 05:29:10 10° N
PSLV R/B 4.2 05:21:05 10° NNE 05:25:16 60° E 05:29:23 10° S
SL-08 R/B 3.3 05:22:21 10° S 05:27:07 68° WSW 05:31:49 10° NNW
Cosmos 1697 Rocket 4.5 05:25:19 10° WNW 05:28:08 14° NNW 05:30:58 10° N
Cosmos 1844 4.1 05:23:46 10° NW 05:29:06 44° WSW 05:34:29 10° S
Cosmos 2098 Rocket 3.8 05:29:16 10° NW 05:32:10 21° W 05:34:43 10° SW
Helios 1A 2.9 05:28:24 10° SSE 05:32:28 89° ENE 05:36:34 10° NNW
Cosmos 2219 Rocket 3.1 05:29:25 10° S 05:34:53 56° ESE 05:40:22 10° NE
In-Cosmos 22 Rocket 4.3 05:29:13 10° SSW 05:34:56 61° WNW 05:40:38 10° N
